User: anonymous   Login
Location: Unspecified
(0.0000°N, 0.0000°E)
Time: 07:10:07
(UTC+00:00)
Language:

Explorer 22 - Orbit

View from above orbital plane
View from above orbital plane
View from above satellite
View from above satellite

Ground track
Ground track

The orbit data is extracted from the following two-line orbital elements,

1   899U 64064A   17178.91685816 +.00000064 +00000-0 +51576-4 0  9992
2   899 079.6915 108.0153 0121116 340.0877 019.5566 13.82023248652305
Epoch (UTC): 27 June 2017 22:00:16
Eccentricity: 0.0121116
inclination: 79.6915°
perigee height: 868 km
apogee height: 1045 km
right ascension of ascending node: 108.0153°
argument of perigee: 340.0877°
revolutions per day: 13.82023248
mean anomaly at epoch: 19.5566°
orbit number at epoch: 65230

The dashed part of the orbit path shows where the satellite is in the earth's shadow,  

DLR